Notices

What's New in latest Release from April 7th, 2021:

- Updated Glossary, including Speed of Maximum Gust, and Total Hourly Precipitation

- Updated national and regional climate services offices contacts and prices information

- Addition of station inventory lists for 1981-2010, 1971-2000, and 1961-1990 Normals.

If you haven't already, please take our survey and provide feedback about our website: https://eccc.sondage-survey.ca/f/LanguageSelection.aspx?s=442ca660-fcf1-47c0-95a9-59707d6fd709

Hourly Data Report for November 13, 2017

CARBERRY CS
MANITOBA

49°54'20.900" N
99°21'26.800" W
383.50 m
5010547
71170
WZE

Download Data

Hourly Data (November 2017)
Hourly Data Report for November 13, 2017
TIME
LST
Temp Definition
°C
Dew Point Definition
°C
Rel Hum Definition
%
Precip. Amount Definition
mm

Wind Dir Definition
10's deg

Wind Spd Definition
km/h
Visibility Definition
km
Stn Press Definition
kPa
Hmdx Definition


Wind Chill Definition


Weather Definition


00:00 -8.3 -10.4 85 0.0 10 11   97.84   -14 LegendNANA
01:00 -6.9 -9.5 82 0.0 10 13   97.78   -12 LegendNANA
02:00 -6.4 -9.2 81 0.0 10 13   97.70   -12 LegendNANA
03:00 -6.0 -9.0 79 0.0 12 16   97.63   -12 LegendNANA
04:00 -6.0 -8.7 81 0.0 11 10   97.57   -10 LegendNANA
05:00 -6.3 -8.8 82 0.0 11 10   97.53   -11 LegendNANA
06:00 -7.1 -9.3 84 0.0 12 12   97.48   -12 LegendNANA
07:00 -8.5 -9.9 89 0.0 13 10   97.45   -13 LegendNANA
08:00 -9.0 -10.4 90 0.0 14 9   97.40   -14 LegendNANA
09:00 -7.0 -9.7 81 0.0 17 10   97.39   -12 LegendNANA
10:00 -4.7 -8.5 75 0.0 16 10   97.34   -9 LegendNANA
11:00 -2.3 -7.0 70 0.0 17 12   97.28   -7 LegendNANA
12:00 -0.5 -6.3 65 0.0 17 9   97.21   -4 LegendNANA
13:00 0.8 -5.5 63 0.0 17 9   97.11     LegendNANA
14:00 1.1 -5.4 62 0.0 18 8   97.00     LegendNANA
15:00 1.5 -4.9 63 0.0 16 10   96.94     LegendNANA
16:00 0.3 -5.0 67 0.0 17 10   96.93     LegendNANA
17:00 -2.6 -6.0 78 0.0 14 11   96.86   -7 LegendNANA
18:00 -3.9 -6.1 85 0.0 16 8   96.84   -7 LegendNANA
19:00 -4.5 -6.3 88 0.0 16 11   96.80   -9 LegendNANA
20:00 -4.9 -6.4 89 0.0 16 11   96.72   -9 LegendNANA
21:00 -5.4 -6.8 90 0.0 16 12   96.64   -10 LegendNANA
22:00 -5.5 -6.7 91 0.0 17 11   96.58   -10 LegendNANA
23:00 -6.3 -7.2 94 0.0 18 8   96.56   -10 LegendNANA

Notes on Data Quality.

Legend

  • E = Estimated
  • M = Missing
  • NA = Not Available*
  • [empty] = Indicates an unobserved value
Date modified: